Flag for Guyana Weather past 2 weeks in Linden, Guyana

Now
82 °F

Rain showers. Partly sunny.


Feels Like: 88 °F
Forecast: 70 / 85 °F
Wind: 16 mph from Northeast

Location: Georgetown/Cheddi Jagan International Airport

Current Time: Jan 25, 2015 at 3:22:51 PM

Latest Report: Jan 25, 2015 at 2:00 PM


Visibility: 4 mi

Pressure: 29.89 "Hg

Humidity: 74%

Dew point: 73 °F

Location of LindenLocation

Historic Weather in Linden — Graph

°F

Linden temperature yesterday

Maximum temperature yesterday: 90 °F (at 1:00 AM)
Minimum temperature yesterday: 72 °F (at 4:00 AM)
Average temperature yesterday: 78 °F

Past Weeks' High & Low Weather Summary

 TemperatureHumidityPressure
High90 °F (Jan 24, 1:00 AM)100% (Jan 10, 9:00 PM)30.01 "Hg (Jan 10, 9:00 PM)
Low68 °F (Jan 23, 6:00 AM)49% (Jan 23, 2:00 PM)29.83 "Hg (Jan 19, 3:00 PM)
Average78 °F86%29.92 "Hg
* Reported Jan 10 2:00 PM — Jan 25 2:00 PM, Linden, Weather by CustomWeather, © 2014

Note: Actual official high and low records may vary slightly from our data, if they occured in-between our weather recording intervals... More about our weather records

Advertising

Linden weather history for previous 24 hours

 ConditionsComfort  
Time TempWeatherWind HumidityBarometerVisibility
2:00 PM
Jan 25
82 °FRain showers. Partly sunny.16 mph74%29.89 "Hg4 mi
1:00 PM84 °FSprinkles. Broken clouds.14 mph66%29.92 "Hg6 mi
12:00 PM86 °FPartly sunny.9 mph62%29.95 "HgN/A
11:00 AM84 °FPartly sunny.12 mph66%29.95 "HgN/A
10:00 AM84 °FPartly sunny.9 mph74%29.98 "HgN/A
9:00 AM82 °FPartly sunny.9 mph70%29.98 "HgN/A
8:00 AM73 °FScattered clouds.5 mph94%29.95 "HgN/A
7:00 AM70 °FScattered clouds.5 mph100%29.95 "HgN/A
6:00 AM70 °FPassing clouds.5 mph94%29.92 "HgN/A
5:00 AM70 °FPassing clouds.7 mph94%29.89 "HgN/A
4:00 AM72 °FPassing clouds.5 mph88%29.92 "HgN/A
3:00 AM72 °FPassing clouds.5 mph88%29.89 "HgN/A
2:00 AM72 °FPassing clouds.5 mph88%29.92 "HgN/A
1:00 AM72 °FPassing clouds.7 mph94%29.92 "HgN/A
12:00 AM73 °FPassing clouds.5 mph94%29.95 "HgN/A
11:00 PM
Jan 24
73 °FPassing clouds.5 mph94%29.95 "HgN/A
10:00 PM72 °FPassing clouds.5 mph94%29.95 "HgN/A
9:00 PM73 °FPassing clouds.7 mph89%29.95 "HgN/A
8:00 PM75 °FPassing clouds.5 mph83%29.92 "HgN/A
7:00 PM77 °FPassing clouds.9 mph79%29.89 "HgN/A
6:00 PM79 °FPassing clouds.5 mph74%29.89 "HgN/A
5:00 PM84 °FScattered clouds.12 mph58%29.86 "HgN/A
4:00 PM84 °FPassing clouds.12 mph58%29.86 "HgN/A
3:00 PM86 °FPassing clouds.15 mph52%29.89 "HgN/A
Weather by CustomWeather, © 2014

See weather overviewHow to use our weather pages